GW4041 Weather Reports


time (UTC)temp
C
wind
direction
speed
KPH
gust
KPH
rain 1hr
cm
rain 24hr
cm
rain mn
cm
humidity
%
barometer
mb
20260504195254 21 352 4.8 9.7 0.00 0.00 0.00 38 1009.6
20260504194751 22 81 3.2 11.3 0.00 0.00 0.00 38 1009.6
20260504194247 22 152 6.4 8.0 0.00 0.00 0.00 36 1009.9
20260504193743 21 242 3.2 14.5 0.00 0.00 0.00 36 1009.9
20260504193241 22 206 1.6 8.0 0.00 0.00 0.00 37 1009.7
20260504192739 22 117 8.0 11.3 0.00 0.00 0.00 36 1009.8
20260504192237 22 264 4.8 9.7 0.00 0.00 0.00 38 1009.7
20260504191736 22 331 3.2 4.8 0.00 0.00 0.00 38 1009.9
20260504191232 22 7 3.2 9.7 0.00 0.00 0.00 37 1010.0
20260504190727 22 302 1.6 4.8 0.00 0.00 0.00 36 1010.0
20260504190224 22 331 1.6 3.2 0.00 0.00 0.00 39 1010.0
20260504185721 22 216 0.0 3.2 0.00 0.00 0.00 38 1010.3
20260504185218 22 113 4.8 9.7 0.00 0.00 0.00 36 1010.3
20260504184714 22 290 3.2 4.8 0.00 0.00 0.00 36 1010.4
20260504184210 22 92 1.6 4.8 0.00 0.00 0.00 40 1010.7
20260504183706 22 97 4.8 9.7 0.00 0.00 0.00 38 1010.6
20260504183203 22 206 1.6 3.2 0.00 0.00 0.00 36 1010.5
20260504182701 22 327 6.4 8.0 0.00 0.00 0.00 36 1010.4
20260504182158 22 226 1.6 9.7 0.00 0.00 0.00 39 1010.6
20260504181655 21 66 1.6 8.0 0.00 0.00 0.00 39 1010.8
20260504181153 22 204 3.2 11.3 0.00 0.00 0.00 36 1010.9
20260504180652 21 243 4.8 9.7 0.00 0.00 0.00 38 1011.0
20260504180150 21 250 3.2 4.8 0.00 0.00 0.00 39 1010.9
20260504175647 22 213 3.2 8.0 0.00 0.00 0.00 37 1011.1
20260504175143 22 46 3.2 4.8 0.00 0.00 0.00 37 1010.8
20260504174642 22 338 0.0 4.8 0.00 0.00 0.00 37 1011.2
20260504174138 22 117 1.6 4.8 0.00 0.00 0.00 36 1011.3
20260504173635 22 213 1.6 4.8 0.00 0.00 0.00 37 1011.3
20260504173133 21 103 3.2 4.8 0.00 0.00 0.00 41 1011.5
20260504172629 21 218 1.6 4.8 0.00 0.00 0.00 38 1011.5
20260504172125 21 200 3.2 9.7 0.00 0.00 0.00 38 1011.3
20260504171622 21 220 4.8 8.0 0.00 0.00 0.00 37 1011.4
20260504171119 21 55 1.6 4.8 0.00 0.00 0.00 38 1011.5
20260504170615 21 153 3.2 8.0 0.00 0.00 0.00 38 1011.6
20260504170113 21 246 0.0 3.2 0.00 0.00 0.00 38 1011.8
20260504150958 18 330 3.2 11.3 0.00 0.00 0.00 44 1013.2
20260504150455 18 274 1.6 8.0 0.00 0.00 0.00 44 1013.0
20260504140922 17 84 1.6 3.2 0.00 0.00 0.00 49 1013.3
20260504140418 17 162 4.8 11.3 0.00 0.00 0.00 51 1013.2
20260504130343 16 24 1.6 3.2 0.00 0.00 0.00 58 1014.3
20260504120306 12 316 3.2 9.7 0.00 0.00 0.00 70 1014.3
20260504110230 8 48 1.6 1.6 0.00 0.00 0.00 77 1014.7
20260504100148 6 38 1.6 1.6 0.00 0.00 0.00 74 1014.3
20260504090111 7 329 1.6 1.6 0.00 0.00 0.00 71 1014.1
20260504081541 7 238 1.6 3.2 0.00 0.00 0.00 73 1013.7
20260504081037 6 310 0.0 0.0 0.00 0.00 0.00 68 1013.7
20260504080534 6 304 0.0 0.0 0.00 0.00 0.00 68 1014.0
20260504050346 8 324 1.6 1.6 0.00 0.00 0.00 63 1013.5
20260504045843 8 353 0.0 1.6 0.00 0.00 0.00 65 1013.7
20260504045343 8 279 0.0 1.6 0.00 0.00 0.00 63 1013.7
20260504044841 8 277 1.6 1.6 0.00 0.00 0.00 65 1013.7
20260504044338 8 284 1.6 3.2 0.00 0.00 0.00 61 1013.5
20260504043835 8 318 0.0 0.0 0.00 0.00 0.00 65 1013.4
20260504043332 8 345 0.0 0.0 0.00 0.00 0.00 64 1013.3
20260504042829 8 332 0.0 0.0 0.00 0.00 0.00 64 1013.5
20260504042325 8 335 0.0 0.0 0.00 0.00 0.00 64 1013.5
20260504041822 8 352 0.0 1.6 0.00 0.00 0.00 63 1013.4
20260504041318 8 315 0.0 1.6 0.00 0.00 0.00 61 1013.1
20260504040814 7 19 0.0 0.0 0.00 0.00 0.00 66 1013.3
20260504040312 7 335 0.0 0.0 0.00 0.00 0.00 67 1013.5
20260504035808 8 326 0.0 0.0 0.00 0.00 0.00 65 1013.3
20260504035305 8 358 0.0 0.0 0.00 0.00 0.00 64 1013.0
20260504034802 8 332 0.0 3.2 0.00 0.00 0.00 62 1013.3
20260504034300 8 282 0.0 0.0 0.00 0.00 0.00 65 1013.2
20260504033757 8 344 0.0 0.0 0.00 0.00 0.00 67 1013.0
20260504033255 8 318 0.0 0.0 0.00 0.00 0.00 66 1013.1
20260504032751 8 328 0.0 0.0 0.00 0.00 0.00 68 1012.9
20260504032248 8 304 0.0 0.0 0.00 0.00 0.00 70 1012.9
20260504031745 8 326 0.0 0.0 0.00 0.00 0.00 64 1012.9
20260504031243 8 337 0.0 0.0 0.00 0.00 0.00 70 1012.9
20260504030738 8 335 0.0 0.0 0.00 0.00 0.00 68 1013.0
20260504030236 8 327 0.0 0.0 0.00 0.00 0.00 68 1012.9
20260504025732 8 358 0.0 0.0 0.00 0.00 0.00 63 1012.8
20260504025229 8 333 0.0 0.0 0.00 0.00 0.00 62 1013.0
20260504024726 8 323 0.0 0.0 0.00 0.00 0.00 65 1012.9
20260504024222 8 328 0.0 1.6 0.00 0.00 0.00 65 1012.9
20260504023719 8 1 1.6 1.6 0.00 0.00 0.00 61 1013.2
20260504023215 8 321 0.0 1.6 0.00 0.00 0.00 66 1013.0
20260504022712 8 343 0.0 1.6 0.00 0.00 0.00 65 1012.8
20260504022208 8 334 0.0 1.6 0.00 0.00 0.00 60 1013.0
20260504021706 9 353 0.0 1.6 0.00 0.00 0.00 64 1012.9
20260504021202 9 26 0.0 3.2 0.00 0.00 0.00 58 1013.0
20260504020659 8 326 0.0 0.0 0.00 0.00 0.00 65 1013.0
20260504020155 8 326 0.0 0.0 0.00 0.00 0.00 66 1013.0
20260504015652 9 19 0.0 0.0 0.00 0.00 0.00 63 1012.7
20260504015148 9 316 0.0 0.0 0.00 0.00 0.00 60 1013.0
20260504014644 8 331 0.0 0.0 0.00 0.00 0.00 63 1013.0
20260504014141 8 350 0.0 0.0 0.00 0.00 0.00 69 1013.1
20260504013639 8 325 0.0 0.0 0.00 0.00 0.00 65 1013.0
20260504013136 8 310 0.0 0.0 0.00 0.00 0.00 67 1013.0
20260504012633 8 327 0.0 0.0 0.00 0.00 0.00 65 1012.7
20260504012131 8 326 0.0 0.0 0.00 0.00 0.00 67 1012.7
20260504011627 8 303 0.0 0.0 0.00 0.00 0.00 62 1012.5
20260504011124 8 299 0.0 0.0 0.00 0.00 0.00 66 1012.3
20260504010620 8 343 0.0 0.0 0.00 0.00 0.00 67 1012.5
20260504010116 8 327 0.0 0.0 0.00 0.00 0.00 65 1012.4
20260504005613 8 344 0.0 0.0 0.00 0.00 0.00 64 1012.5
20260504005110 9 328 0.0 0.0 0.00 0.00 0.00 65 1012.3
20260504004608 9 307 1.6 1.6 0.00 0.00 0.00 62 1012.4
20260504004105 9 308 0.0 1.6 0.00 0.00 0.00 60 1012.1
20260504003600 10 342 1.6 1.6 0.00 0.00 0.00 59 1012.0
20260504003057 10 323 0.0 1.6 0.00 0.00 0.00 58 1012.0
20260504002554 10 323 0.0 0.0 0.00 0.00 0.00 58 1012.1
20260504002052 10 328 0.0 0.0 0.00 0.00 0.00 58 1011.8
20260504001550 10 314 0.0 0.0 0.00 0.00 0.00 53 1011.8
20260504001045 11 327 0.0 0.0 0.00 0.00 0.00 53 1011.8
20260504000543 11 312 0.0 0.0 0.00 0.00 0.00 50 1011.8
20260504000040 11 313 0.0 0.0 0.00 0.00 0.00 47 1011.6
20260503235538 11 330 0.0 0.0 0.00 0.00 0.00 45 1011.6
20260503235035 12 335 0.0 0.0 0.00 0.00 0.00 44 1011.6
20260503234532 12 310 0.0 0.0 0.00 0.00 0.00 43 1011.6
20260503234031 12 319 0.0 0.0 0.00 0.00 0.00 43 1011.2
20260503233527 12 349 0.0 0.0 0.00 0.00 0.00 42 1011.3
20260503233023 13 1 0.0 0.0 0.00 0.00 0.00 41 1011.2
20260503232520 13 299 0.0 1.6 0.00 0.00 0.00 40 1011.3
20260503232018 13 24 0.0 1.6 0.00 0.00 0.00 41 1011.3
20260503231515 13 287 0.0 8.0 0.00 0.00 0.00 39 1011.1
20260503231012 13 339 0.0 1.6 0.00 0.00 0.00 42 1011.0
20260503230508 13 341 1.6 4.8 0.00 0.00 0.00 39 1011.1
20260503230006 13 318 3.2 4.8 0.00 0.00 0.00 40 1011.0
20260503225503 13 322 0.0 0.0 0.00 0.00 0.00 38 1010.9
20260503224957 13 281 1.6 3.2 0.00 0.00 0.00 38 1011.1
20260503224455 13 22 1.6 3.2 0.00 0.00 0.00 36 1010.9
20260503223953 13 337 1.6 3.2 0.00 0.00 0.00 36 1011.0
20260503223450 13 36 11.3 14.5 0.00 0.00 0.00 35 1011.1
20260503222946 13 32 1.6 4.8 0.00 0.00 0.00 38 1010.9
20260503222445 13 248 4.8 11.3 0.00 0.00 0.00 37 1010.8
20260503221942 14 275 3.2 9.7 0.00 0.00 0.00 36 1010.7
20260503221440 14 342 4.8 4.8 0.00 0.00 0.00 35 1011.0
20260503220937 14 317 3.2 8.0 0.00 0.00 0.00 35 1010.9
20260503220433 14 273 3.2 4.8 0.00 0.00 0.00 35 1011.2
20260503215931 14 310 1.6 8.0 0.00 0.00 0.00 38 1011.0
20260503215427 14 163 3.2 4.8 0.00 0.00 0.00 36 1011.0
20260503214925 14 41 1.6 8.0 0.00 0.00 0.00 36 1011.0
20260503214423 14 358 3.2 3.2 0.00 0.00 0.00 36 1011.0
20260503213920 14 339 1.6 4.8 0.00 0.00 0.00 37 1010.9
20260503213418 14 270 3.2 4.8 0.00 0.00 0.00 35 1011.1
20260503212914 14 260 6.4 9.7 0.00 0.00 0.00 35 1011.0
20260503212412 14 293 6.4 9.7 0.00 0.00 0.00 35 1011.0
20260503211909 14 314 4.8 12.9 0.00 0.00 0.00 35 1010.9
20260503211405 14 69 1.6 3.2 0.00 0.00 0.00 37 1011.1
20260503210901 14 97 1.6 3.2 0.00 0.00 0.00 36 1011.0
20260503210358 14 337 4.8 11.3 0.00 0.00 0.00 35 1011.1
20260503205853 14 6 3.2 9.7 0.00 0.00 0.00 36 1011.2
20260503205350 13 276 4.8 14.5 0.00 0.00 0.00 35 1011.1
20260503204846 13 214 3.2 11.3 0.00 0.00 0.00 37 1011.2
20260503204343 14 33 8.0 14.5 0.00 0.00 0.00 35 1011.0
20260503203841 14 324 6.4 9.7 0.00 0.00 0.00 35 1011.0
20260503203338 14 166 6.4 8.0 0.00 0.00 0.00 35 1011.0
20260503202835 13 359 0.0 8.0 0.00 0.00 0.00 37 1011.0
20260503202333 14 334 1.6 9.7 0.00 0.00 0.00 35 1011.2
20260503201831 13 354 3.2 4.8 0.00 0.00 0.00 36 1011.1
20260503201328 14 258 4.8 16.1 0.00 0.00 0.00 35 1011.1
20260503200825 14 20 0.0 9.7 0.00 0.00 0.00 35 1011.1
20260503200321 14 38 3.2 8.0 0.00 0.00 0.00 35 1011.2
20260503195819 14 270 6.4 12.9 0.00 0.00 0.00 36 1011.1